Year,Month,Day,Hour,Minute,Value (Times are PST for temperature in C)
2006,09,05,00,00,13.50
2006,09,05,00,01,13.50
2006,09,05,00,02,13.50
2006,09,05,00,03,13.50
2006,09,05,00,04,13.50
2006,09,05,00,05,13.50
2006,09,05,00,06,13.50
2006,09,05,00,07,13.50
2006,09,05,00,08,13.60
2006,09,05,00,09,13.60
2006,09,05,00,10,13.60
2006,09,05,00,11,13.60
2006,09,05,00,12,13.60
2006,09,05,00,13,13.60
2006,09,05,00,14,13.60
2006,09,05,00,15,13.60
2006,09,05,00,16,13.60
2006,09,05,00,17,13.60
2006,09,05,00,18,13.60
2006,09,05,00,19,13.60
2006,09,05,00,20,13.60
2006,09,05,00,21,13.60
2006,09,05,00,22,13.60
2006,09,05,00,23,13.60
2006,09,05,00,24,13.60
2006,09,05,00,25,13.60
2006,09,05,00,26,13.60
2006,09,05,00,27,13.60
2006,09,05,00,28,13.60
2006,09,05,00,29,13.60
2006,09,05,00,30,13.60
2006,09,05,00,31,13.60
2006,09,05,00,32,13.50
2006,09,05,00,33,13.50
2006,09,05,00,34,13.50
2006,09,05,00,35,13.50
2006,09,05,00,36,13.50
2006,09,05,00,37,13.50
2006,09,05,00,38,13.50
2006,09,05,00,39,13.50
2006,09,05,00,40,13.40
2006,09,05,00,41,13.40
2006,09,05,00,42,13.40
2006,09,05,00,43,13.40
2006,09,05,00,44,13.40
2006,09,05,00,45,13.40
2006,09,05,00,46,13.40
2006,09,05,00,47,13.30
2006,09,05,00,48,13.30
2006,09,05,00,49,13.30
2006,09,05,00,50,13.30
2006,09,05,00,51,13.30
2006,09,05,00,52,13.30
2006,09,05,00,53,13.30
2006,09,05,00,54,13.30
2006,09,05,00,55,13.30
2006,09,05,00,56,13.30
2006,09,05,00,57,13.30
2006,09,05,00,58,13.30
2006,09,05,00,59,13.30
2006,09,05,01,00,13.30
2006,09,05,01,01,13.30
2006,09,05,01,02,13.30
2006,09,05,01,03,13.30
2006,09,05,01,04,13.30
2006,09,05,01,05,13.30
2006,09,05,01,06,13.30
2006,09,05,01,07,13.20
2006,09,05,01,08,13.20
2006,09,05,01,09,13.20
2006,09,05,01,10,13.20
2006,09,05,01,11,13.20
2006,09,05,01,12,13.20
2006,09,05,01,13,13.20
2006,09,05,01,14,13.20
2006,09,05,01,15,13.20
2006,09,05,01,16,13.20
2006,09,05,01,17,13.20
2006,09,05,01,18,13.30
2006,09,05,01,19,13.30
2006,09,05,01,20,13.30
2006,09,05,01,21,13.30
2006,09,05,01,22,13.30
2006,09,05,01,23,13.30
2006,09,05,01,24,13.30
2006,09,05,01,25,13.30
2006,09,05,01,26,13.30
2006,09,05,01,27,13.30
2006,09,05,01,28,13.30
2006,09,05,01,29,13.30
2006,09,05,01,30,13.30
2006,09,05,01,31,13.30
2006,09,05,01,32,13.30
2006,09,05,01,33,13.30
2006,09,05,01,34,13.30
2006,09,05,01,35,13.30
2006,09,05,01,36,13.30
2006,09,05,01,37,13.30
2006,09,05,01,38,13.20
2006,09,05,01,39,13.20
2006,09,05,01,40,13.20
2006,09,05,01,41,13.20
2006,09,05,01,42,13.20
2006,09,05,01,43,13.20
2006,09,05,01,44,13.20
2006,09,05,01,45,13.20
2006,09,05,01,46,13.20
2006,09,05,01,47,13.20
2006,09,05,01,48,13.20
2006,09,05,01,49,13.20
2006,09,05,01,50,13.20
2006,09,05,01,51,13.20
2006,09,05,01,52,13.20
2006,09,05,01,53,13.10
2006,09,05,01,54,13.10
2006,09,05,01,55,13.10
2006,09,05,01,56,13.10
2006,09,05,01,57,13.10
2006,09,05,01,58,13.00
2006,09,05,01,59,13.00
2006,09,05,02,00,13.00
2006,09,05,02,01,13.00
2006,09,05,02,02,13.00
2006,09,05,02,03,13.00
2006,09,05,02,04,13.00
2006,09,05,02,05,13.00
2006,09,05,02,06,13.00
2006,09,05,02,07,13.00
2006,09,05,02,08,13.10
2006,09,05,02,09,13.10
2006,09,05,02,10,13.10
2006,09,05,02,11,13.10
2006,09,05,02,12,13.10
2006,09,05,02,13,13.10
2006,09,05,02,14,13.10
2006,09,05,02,15,13.10
2006,09,05,02,16,13.10
2006,09,05,02,17,13.20
2006,09,05,02,18,13.20
2006,09,05,02,19,13.20
2006,09,05,02,20,13.20
2006,09,05,02,21,13.20
2006,09,05,02,22,13.20
2006,09,05,02,23,13.20
2006,09,05,02,24,13.20
2006,09,05,02,25,13.10
2006,09,05,02,26,13.10
2006,09,05,02,27,13.10
2006,09,05,02,28,13.10
2006,09,05,02,29,13.10
2006,09,05,02,30,13.10
2006,09,05,02,31,13.10
2006,09,05,02,32,13.00
2006,09,05,02,33,13.00
2006,09,05,02,34,13.00
2006,09,05,02,35,13.00
2006,09,05,02,36,13.00
2006,09,05,02,37,13.00
2006,09,05,02,38,12.90
2006,09,05,02,39,12.90
2006,09,05,02,40,12.90
2006,09,05,02,41,12.90
2006,09,05,02,42,12.80
2006,09,05,02,43,12.80
2006,09,05,02,44,12.80
2006,09,05,02,45,12.80
2006,09,05,02,46,12.80
2006,09,05,02,47,12.80
2006,09,05,02,48,12.80
2006,09,05,02,49,12.80
2006,09,05,02,50,12.70
2006,09,05,02,51,12.70
2006,09,05,02,52,12.70
2006,09,05,02,53,12.70
2006,09,05,02,54,12.70
2006,09,05,02,55,12.70
2006,09,05,02,56,12.70
2006,09,05,02,57,12.70
2006,09,05,02,58,12.70
2006,09,05,02,59,12.70
2006,09,05,03,00,12.70
2006,09,05,03,01,12.70
2006,09,05,03,02,12.70
2006,09,05,03,03,12.70
2006,09,05,03,04,12.70
2006,09,05,03,05,12.70
2006,09,05,03,06,12.70
2006,09,05,03,07,12.70
2006,09,05,03,08,12.60
2006,09,05,03,09,12.60
2006,09,05,03,10,12.60
2006,09,05,03,11,12.60
2006,09,05,03,12,12.60
2006,09,05,03,13,12.60
2006,09,05,03,14,12.60
2006,09,05,03,15,12.60
2006,09,05,03,16,12.70
2006,09,05,03,17,12.70
2006,09,05,03,18,12.70
2006,09,05,03,19,12.70
2006,09,05,03,20,12.70
2006,09,05,03,21,12.70
2006,09,05,03,22,12.80
2006,09,05,03,23,12.80
2006,09,05,03,24,12.80
2006,09,05,03,25,12.80
2006,09,05,03,26,12.80
2006,09,05,03,27,12.80
2006,09,05,03,28,12.80
2006,09,05,03,29,12.80
2006,09,05,03,30,12.80
2006,09,05,03,31,12.70
2006,09,05,03,32,12.70
2006,09,05,03,33,12.70
2006,09,05,03,34,12.70
2006,09,05,03,35,12.60
2006,09,05,03,36,12.60
2006,09,05,03,37,12.60
2006,09,05,03,38,12.60
2006,09,05,03,39,12.60
2006,09,05,03,40,12.60
2006,09,05,03,41,12.50
2006,09,05,03,42,12.50
2006,09,05,03,43,12.50
2006,09,05,03,44,12.50
2006,09,05,03,45,12.40
2006,09,05,03,46,12.40
2006,09,05,03,47,12.40
2006,09,05,03,48,12.40
2006,09,05,03,49,12.40
2006,09,05,03,50,12.30
2006,09,05,03,51,12.30
2006,09,05,03,52,12.30
2006,09,05,03,53,12.30
2006,09,05,03,54,12.30
2006,09,05,03,55,12.30
2006,09,05,03,56,12.30
2006,09,05,03,57,12.30
2006,09,05,03,58,12.30
2006,09,05,03,59,12.30
2006,09,05,04,00,12.30
2006,09,05,04,01,12.30
2006,09,05,04,02,12.30
2006,09,05,04,03,12.30
2006,09,05,04,04,12.30
2006,09,05,04,05,12.20
2006,09,05,04,06,12.20
2006,09,05,04,07,12.20
2006,09,05,04,08,12.20
2006,09,05,04,09,12.20
2006,09,05,04,10,12.20
2006,09,05,04,11,12.10
2006,09,05,04,12,12.10
2006,09,05,04,13,12.10
2006,09,05,04,14,12.10
2006,09,05,04,15,12.10
2006,09,05,04,16,12.00
2006,09,05,04,17,12.00
2006,09,05,04,18,12.00
2006,09,05,04,19,12.00
2006,09,05,04,20,12.00
2006,09,05,04,21,12.00
2006,09,05,04,22,12.00
2006,09,05,04,23,12.00
2006,09,05,04,24,12.00
2006,09,05,04,25,12.00
2006,09,05,04,26,12.00
2006,09,05,04,27,12.00
2006,09,05,04,28,12.00
2006,09,05,04,29,12.00
2006,09,05,04,30,12.00
2006,09,05,04,31,12.00
2006,09,05,04,32,11.90
2006,09,05,04,33,11.90
2006,09,05,04,34,11.90
2006,09,05,04,35,11.90
2006,09,05,04,36,11.90
2006,09,05,04,37,11.90
2006,09,05,04,38,11.80
2006,09,05,04,39,11.80
2006,09,05,04,40,11.80
2006,09,05,04,41,11.80
2006,09,05,04,42,11.80
2006,09,05,04,43,11.80
2006,09,05,04,44,11.80
2006,09,05,04,45,11.80
2006,09,05,04,46,11.80
2006,09,05,04,47,11.80
2006,09,05,04,48,11.80
2006,09,05,04,49,11.80
2006,09,05,04,50,11.80
2006,09,05,04,51,11.80
2006,09,05,04,52,11.80
2006,09,05,04,53,11.80
2006,09,05,04,54,11.80
2006,09,05,04,55,11.80
2006,09,05,04,56,11.80
2006,09,05,04,57,11.80
2006,09,05,04,58,11.80
2006,09,05,04,59,11.80
2006,09,05,05,00,11.80
2006,09,05,05,01,11.80
2006,09,05,05,02,11.80
2006,09,05,05,03,11.80
2006,09,05,05,04,11.80
2006,09,05,05,05,11.80
2006,09,05,05,06,11.80
2006,09,05,05,07,11.80
2006,09,05,05,08,11.80
2006,09,05,05,09,11.80
2006,09,05,05,10,11.80
2006,09,05,05,11,11.80
2006,09,05,05,12,11.80
2006,09,05,05,13,11.80
2006,09,05,05,14,11.80
2006,09,05,05,15,11.80
2006,09,05,05,16,11.80
2006,09,05,05,17,11.80
2006,09,05,05,18,11.80
2006,09,05,05,19,11.80
2006,09,05,05,20,11.80
2006,09,05,05,21,11.80
2006,09,05,05,22,11.80
2006,09,05,05,23,11.80
2006,09,05,05,24,11.80
2006,09,05,05,25,11.80
2006,09,05,05,26,11.80
2006,09,05,05,27,11.80
2006,09,05,05,28,11.80
2006,09,05,05,29,11.80
2006,09,05,05,30,11.80
2006,09,05,05,31,11.80
2006,09,05,05,32,11.80
2006,09,05,05,33,11.80
2006,09,05,05,34,11.80
2006,09,05,05,35,11.80
2006,09,05,05,36,11.70
2006,09,05,05,37,11.70
2006,09,05,05,38,11.70
2006,09,05,05,39,11.70
2006,09,05,05,40,11.70
2006,09,05,05,41,11.70
2006,09,05,05,42,11.70
2006,09,05,05,43,11.60
2006,09,05,05,44,11.60
2006,09,05,05,45,11.60
2006,09,05,05,46,11.60
2006,09,05,05,47,11.60
2006,09,05,05,48,11.60
2006,09,05,05,49,11.60
2006,09,05,05,50,11.70
2006,09,05,05,51,11.70
2006,09,05,05,52,11.70
2006,09,05,05,53,11.70
2006,09,05,05,54,11.70
2006,09,05,05,55,11.70
2006,09,05,05,56,11.70
2006,09,05,05,57,11.70
2006,09,05,05,58,11.60
2006,09,05,05,59,11.60
2006,09,05,06,00,11.60
2006,09,05,06,01,11.60
2006,09,05,06,02,11.60
2006,09,05,06,03,11.60
2006,09,05,06,04,11.60
2006,09,05,06,05,11.60
2006,09,05,06,06,11.60
2006,09,05,06,07,11.60
2006,09,05,06,08,11.60
2006,09,05,06,09,11.60
2006,09,05,06,10,11.60
2006,09,05,06,11,11.60
2006,09,05,06,12,11.60
2006,09,05,06,13,11.60
2006,09,05,06,14,11.60
2006,09,05,06,15,11.60
2006,09,05,06,16,11.60
2006,09,05,06,17,11.60
2006,09,05,06,18,11.60
2006,09,05,06,19,11.60
2006,09,05,06,20,11.50
2006,09,05,06,21,11.40
2006,09,05,06,22,11.40
2006,09,05,06,23,11.40
2006,09,05,06,24,11.40
2006,09,05,06,25,11.40
2006,09,05,06,26,11.40
2006,09,05,06,27,11.40
2006,09,05,06,28,11.40
2006,09,05,06,29,11.40
2006,09,05,06,30,11.40
2006,09,05,06,31,11.40
2006,09,05,06,32,11.40
2006,09,05,06,33,11.40
2006,09,05,06,34,11.40
2006,09,05,06,35,11.40
2006,09,05,06,36,11.40
2006,09,05,06,37,11.40
2006,09,05,06,38,11.40
2006,09,05,06,39,11.40
2006,09,05,06,40,11.40
2006,09,05,06,41,11.50
2006,09,05,06,42,11.60
2006,09,05,06,43,11.60
2006,09,05,06,44,11.60
2006,09,05,06,45,11.60
2006,09,05,06,46,11.60
2006,09,05,06,47,11.60
2006,09,05,06,48,11.60
2006,09,05,06,49,11.60
2006,09,05,06,50,11.60
2006,09,05,06,51,11.60
2006,09,05,06,52,11.60
2006,09,05,06,53,11.60
2006,09,05,06,54,11.60
2006,09,05,06,55,11.60
2006,09,05,06,56,11.60
2006,09,05,06,57,11.60
2006,09,05,06,58,11.60
2006,09,05,06,59,11.60
2006,09,05,07,00,11.60
2006,09,05,07,01,11.60
2006,09,05,07,02,11.60
2006,09,05,07,03,11.60
2006,09,05,07,04,11.60
2006,09,05,07,05,11.60
2006,09,05,07,06,11.60
2006,09,05,07,07,11.60
2006,09,05,07,08,11.60
2006,09,05,07,09,11.60
2006,09,05,07,10,11.60
2006,09,05,07,11,11.60
2006,09,05,07,12,11.60
2006,09,05,07,13,11.70
2006,09,05,07,14,11.70
2006,09,05,07,15,11.80
2006,09,05,07,16,11.80
2006,09,05,07,17,11.90
2006,09,05,07,18,12.00
2006,09,05,07,19,12.10
2006,09,05,07,20,12.10
2006,09,05,07,21,12.20
2006,09,05,07,22,12.30
2006,09,05,07,23,12.30
2006,09,05,07,24,12.40
2006,09,05,07,25,12.50
2006,09,05,07,26,12.60
2006,09,05,07,27,12.60
2006,09,05,07,28,12.70
2006,09,05,07,29,12.70
2006,09,05,07,30,12.80
2006,09,05,07,31,12.80
2006,09,05,07,32,12.80
2006,09,05,07,33,12.80
2006,09,05,07,34,12.80
2006,09,05,07,35,12.80
2006,09,05,07,36,12.80
2006,09,05,07,37,12.80
2006,09,05,07,38,12.90
2006,09,05,07,39,12.90
2006,09,05,07,40,12.90
2006,09,05,07,41,12.90
2006,09,05,07,42,12.90
2006,09,05,07,43,13.00
2006,09,05,07,44,13.00
2006,09,05,07,45,13.00
2006,09,05,07,46,13.10
2006,09,05,07,47,13.10
2006,09,05,07,48,13.20
2006,09,05,07,49,13.30
2006,09,05,07,50,13.30
2006,09,05,07,51,13.30
2006,09,05,07,52,13.40
2006,09,05,07,53,13.40
2006,09,05,07,54,13.50
2006,09,05,07,55,13.50
2006,09,05,07,56,13.60
2006,09,05,07,57,13.70
2006,09,05,07,58,13.70
2006,09,05,07,59,13.80
2006,09,05,08,00,13.90
2006,09,05,08,01,13.90
2006,09,05,08,02,13.90
2006,09,05,08,03,14.00
2006,09,05,08,04,14.00
2006,09,05,08,05,14.10
2006,09,05,08,06,14.10
2006,09,05,08,07,14.10
2006,09,05,08,08,14.20
2006,09,05,08,09,14.20
2006,09,05,08,10,14.20
2006,09,05,08,11,14.20
2006,09,05,08,12,14.20
2006,09,05,08,13,14.30
2006,09,05,08,14,14.30
2006,09,05,08,15,14.40
2006,09,05,08,16,14.40
2006,09,05,08,17,14.40
2006,09,05,08,18,14.50
2006,09,05,08,19,14.50
2006,09,05,08,20,14.50
2006,09,05,08,21,14.60
2006,09,05,08,22,14.60
2006,09,05,08,23,14.60
2006,09,05,08,24,14.70
2006,09,05,08,25,14.80
2006,09,05,08,26,14.80
2006,09,05,08,27,14.90
2006,09,05,08,28,14.90
2006,09,05,08,29,15.00
2006,09,05,08,30,15.00
2006,09,05,08,31,15.10
2006,09,05,08,32,15.20
2006,09,05,08,33,15.20
2006,09,05,08,34,15.20
2006,09,05,08,35,15.30
2006,09,05,08,36,15.30
2006,09,05,08,37,15.30
2006,09,05,08,38,15.40
2006,09,05,08,39,15.40
2006,09,05,08,40,15.50
2006,09,05,08,41,15.50
2006,09,05,08,42,15.50
2006,09,05,08,43,15.60
2006,09,05,08,44,15.60
2006,09,05,08,45,15.70
2006,09,05,08,46,15.70
2006,09,05,08,47,15.80
2006,09,05,08,48,15.80
2006,09,05,08,49,15.90
2006,09,05,08,50,15.90
2006,09,05,08,51,16.10
2006,09,05,08,52,16.10
2006,09,05,08,53,16.20
2006,09,05,08,54,16.30
2006,09,05,08,55,16.40
2006,09,05,08,56,16.50
2006,09,05,08,57,16.60
2006,09,05,08,58,16.70
2006,09,05,08,59,16.70
2006,09,05,09,00,16.80
2006,09,05,09,01,16.90
2006,09,05,09,02,16.90
2006,09,05,09,03,17.00
2006,09,05,09,04,17.10
2006,09,05,09,05,17.20
2006,09,05,09,06,17.30
2006,09,05,09,07,17.30
2006,09,05,09,08,17.30
2006,09,05,09,09,17.30
2006,09,05,09,10,17.30
2006,09,05,09,11,17.20
2006,09,05,09,12,17.20
2006,09,05,09,13,17.10
2006,09,05,09,14,17.10
2006,09,05,09,15,17.00
2006,09,05,09,16,17.00
2006,09,05,09,17,17.00
2006,09,05,09,18,16.90
2006,09,05,09,19,16.90
2006,09,05,09,20,16.90
2006,09,05,09,21,16.80
2006,09,05,09,22,16.80
2006,09,05,09,23,16.80
2006,09,05,09,24,16.80
2006,09,05,09,25,16.90
2006,09,05,09,26,16.90
2006,09,05,09,27,17.00
2006,09,05,09,28,17.00
2006,09,05,09,29,17.10
2006,09,05,09,30,17.10
2006,09,05,09,31,17.20
2006,09,05,09,32,17.20
2006,09,05,09,33,17.20
2006,09,05,09,34,17.20
2006,09,05,09,35,17.20
2006,09,05,09,36,17.30
2006,09,05,09,37,17.30
2006,09,05,09,38,17.40
2006,09,05,09,39,17.40
2006,09,05,09,40,17.40
2006,09,05,09,41,17.40
2006,09,05,09,42,17.40
2006,09,05,09,43,17.40
2006,09,05,09,44,17.40
2006,09,05,09,45,17.40
2006,09,05,09,46,17.40
2006,09,05,09,47,17.30
2006,09,05,09,48,17.30
2006,09,05,09,49,17.20
2006,09,05,09,50,17.10
2006,09,05,09,51,17.00
2006,09,05,09,52,17.00
2006,09,05,09,53,16.90
2006,09,05,09,54,16.80
2006,09,05,09,55,16.80
2006,09,05,09,56,16.80
2006,09,05,09,57,16.80
2006,09,05,09,58,16.80
2006,09,05,09,59,16.80
2006,09,05,10,00,16.70
2006,09,05,10,01,16.70
2006,09,05,10,02,16.70
2006,09,05,10,03,16.70
2006,09,05,10,04,16.70
2006,09,05,10,05,16.70
2006,09,05,10,06,16.70
2006,09,05,10,07,16.60
2006,09,05,10,08,16.60
2006,09,05,10,09,16.70
2006,09,05,10,10,16.60
2006,09,05,10,11,16.60
2006,09,05,10,12,16.60
2006,09,05,10,13,16.50
2006,09,05,10,14,16.40
2006,09,05,10,15,16.40
2006,09,05,10,16,16.40
2006,09,05,10,17,16.40
2006,09,05,10,18,16.40
2006,09,05,10,19,16.50
2006,09,05,10,20,16.60
2006,09,05,10,21,16.70
2006,09,05,10,22,16.70
2006,09,05,10,23,16.70
2006,09,05,10,24,16.70
2006,09,05,10,25,16.70
2006,09,05,10,26,16.80
2006,09,05,10,27,16.80
2006,09,05,10,28,16.90
2006,09,05,10,29,17.00
2006,09,05,10,30,17.00
2006,09,05,10,31,17.10
2006,09,05,10,32,17.20
2006,09,05,10,33,17.30
2006,09,05,10,34,17.30
2006,09,05,10,35,17.30
2006,09,05,10,36,17.30
2006,09,05,10,37,17.40
2006,09,05,10,38,17.50
2006,09,05,10,39,17.50
2006,09,05,10,40,17.60
2006,09,05,10,41,17.60
2006,09,05,10,42,17.60
2006,09,05,10,43,17.60
2006,09,05,10,44,17.70
2006,09,05,10,45,17.70
2006,09,05,10,46,17.70
2006,09,05,10,47,17.70
2006,09,05,10,48,17.80
2006,09,05,10,49,17.80
2006,09,05,10,50,17.90
2006,09,05,10,51,17.90
2006,09,05,10,52,18.00
2006,09,05,10,53,18.10
2006,09,05,10,54,18.20
2006,09,05,10,55,18.20
2006,09,05,10,56,18.20
2006,09,05,10,57,18.30
2006,09,05,10,58,18.40
2006,09,05,10,59,18.40
2006,09,05,11,00,18.40
2006,09,05,11,01,18.40
2006,09,05,11,02,18.40
2006,09,05,11,03,18.50
2006,09,05,11,04,18.50
2006,09,05,11,05,18.50
2006,09,05,11,06,18.50
2006,09,05,11,07,18.50
2006,09,05,11,08,18.50
2006,09,05,11,09,18.60
2006,09,05,11,10,18.60
2006,09,05,11,11,18.60
2006,09,05,11,12,18.60
2006,09,05,11,13,18.60
2006,09,05,11,14,18.60
2006,09,05,11,15,18.70
2006,09,05,11,16,18.60
2006,09,05,11,17,18.60
2006,09,05,11,18,18.60
2006,09,05,11,19,18.60
2006,09,05,11,20,18.60
2006,09,05,11,21,18.60
2006,09,05,11,22,18.60
2006,09,05,11,23,18.60
2006,09,05,11,24,18.60
2006,09,05,11,25,18.60
2006,09,05,11,26,18.60
2006,09,05,11,27,18.70
2006,09,05,11,28,18.70
2006,09,05,11,29,18.70
2006,09,05,11,30,18.70
2006,09,05,11,31,18.70
2006,09,05,11,32,18.70
2006,09,05,11,33,18.80
2006,09,05,11,34,18.80
2006,09,05,11,35,18.80
2006,09,05,11,36,18.80
2006,09,05,11,37,18.90
2006,09,05,11,38,18.90
2006,09,05,11,39,18.90
2006,09,05,11,40,18.80
2006,09,05,11,41,18.70
2006,09,05,11,42,18.60
2006,09,05,11,43,18.60
2006,09,05,11,44,18.70
2006,09,05,11,45,18.70
2006,09,05,11,46,18.70
2006,09,05,11,47,18.80
2006,09,05,11,48,18.80
2006,09,05,11,49,18.80
2006,09,05,11,50,18.90
2006,09,05,11,51,18.90
2006,09,05,11,52,19.00
2006,09,05,11,53,19.10
2006,09,05,11,54,19.10
2006,09,05,11,55,19.10
2006,09,05,11,56,19.10
2006,09,05,11,57,19.10
2006,09,05,11,58,19.10
2006,09,05,11,59,18.90
2006,09,05,12,00,18.90
2006,09,05,12,01,18.90
2006,09,05,12,02,18.90
2006,09,05,12,03,19.00
2006,09,05,12,04,19.10
2006,09,05,12,05,19.10
2006,09,05,12,06,19.20
2006,09,05,12,07,19.20
2006,09,05,12,08,19.20
2006,09,05,12,09,19.20
2006,09,05,12,10,19.30
2006,09,05,12,11,19.30
2006,09,05,12,12,19.40
2006,09,05,12,13,19.40
2006,09,05,12,14,19.50
2006,09,05,12,15,19.60
2006,09,05,12,16,19.70
2006,09,05,12,17,19.70
2006,09,05,12,18,19.70
2006,09,05,12,19,19.70
2006,09,05,12,20,19.70
2006,09,05,12,21,19.80
2006,09,05,12,22,19.70
2006,09,05,12,23,19.70
2006,09,05,12,24,19.70
2006,09,05,12,25,19.70
2006,09,05,12,26,19.80
2006,09,05,12,27,19.90
2006,09,05,12,28,19.90
2006,09,05,12,29,19.90
2006,09,05,12,30,19.90
2006,09,05,12,31,19.90
2006,09,05,12,32,19.90
2006,09,05,12,33,19.90
2006,09,05,12,34,19.90
2006,09,05,12,35,19.90
2006,09,05,12,36,19.90
2006,09,05,12,37,19.90
2006,09,05,12,38,19.90
2006,09,05,12,39,19.90
2006,09,05,12,40,19.90
2006,09,05,12,41,19.80
2006,09,05,12,42,19.80
2006,09,05,12,43,19.80
2006,09,05,12,44,19.70
2006,09,05,12,45,19.60
2006,09,05,12,46,19.60
2006,09,05,12,47,19.70
2006,09,05,12,48,19.80
2006,09,05,12,49,19.90
2006,09,05,12,50,19.90
2006,09,05,12,51,19.90
2006,09,05,12,52,19.90
2006,09,05,12,53,19.80
2006,09,05,12,54,19.80
2006,09,05,12,55,19.80
2006,09,05,12,56,19.90
2006,09,05,12,57,19.90
2006,09,05,12,58,20.00
2006,09,05,12,59,20.10
2006,09,05,13,00,20.10
2006,09,05,13,01,20.00
2006,09,05,13,02,19.90
2006,09,05,13,03,19.90
2006,09,05,13,04,20.00
2006,09,05,13,05,20.10
2006,09,05,13,06,20.00
2006,09,05,13,07,20.10
2006,09,05,13,08,20.10
2006,09,05,13,09,20.10
2006,09,05,13,10,20.20
2006,09,05,13,11,20.10
2006,09,05,13,12,19.90
2006,09,05,13,13,19.90
2006,09,05,13,14,19.90
2006,09,05,13,15,19.90
2006,09,05,13,16,19.90
2006,09,05,13,17,19.90
2006,09,05,13,18,19.90
2006,09,05,13,19,19.90
2006,09,05,13,20,20.10
2006,09,05,13,21,20.10
2006,09,05,13,22,20.20
2006,09,05,13,23,20.20
2006,09,05,13,24,20.20
2006,09,05,13,25,20.30
2006,09,05,13,26,20.20
2006,09,05,13,27,20.30
2006,09,05,13,28,20.30
2006,09,05,13,29,20.40
2006,09,05,13,30,20.40
2006,09,05,13,31,20.40
2006,09,05,13,32,20.50
2006,09,05,13,33,20.50
2006,09,05,13,34,20.60
2006,09,05,13,35,20.70
2006,09,05,13,36,20.80
2006,09,05,13,37,20.80
2006,09,05,13,38,20.90
2006,09,05,13,39,20.90
2006,09,05,13,40,21.00
2006,09,05,13,41,21.00
2006,09,05,13,42,21.00
2006,09,05,13,43,21.00
2006,09,05,13,44,20.80
2006,09,05,13,45,20.80
2006,09,05,13,46,20.90
2006,09,05,13,47,21.00
2006,09,05,13,48,21.00
2006,09,05,13,49,21.10
2006,09,05,13,50,21.00
2006,09,05,13,51,21.00
2006,09,05,13,52,21.00
2006,09,05,13,53,21.10
2006,09,05,13,54,21.10
2006,09,05,13,55,21.20
2006,09,05,13,56,21.30
2006,09,05,13,57,21.30
2006,09,05,13,58,21.40
2006,09,05,13,59,21.30
2006,09,05,14,00,21.30
2006,09,05,14,01,21.30
2006,09,05,14,02,21.30
2006,09,05,14,03,21.30
2006,09,05,14,04,21.30
2006,09,05,14,05,21.20
2006,09,05,14,06,21.20
2006,09,05,14,07,21.20
2006,09,05,14,08,21.30
2006,09,05,14,09,21.30
2006,09,05,14,10,21.30
2006,09,05,14,11,21.30
2006,09,05,14,12,21.30
2006,09,05,14,13,21.30
2006,09,05,14,14,21.30
2006,09,05,14,15,21.30
2006,09,05,14,16,21.30
2006,09,05,14,17,21.30
2006,09,05,14,18,21.40
2006,09,05,14,19,21.40
2006,09,05,14,20,21.40
2006,09,05,14,21,21.40
2006,09,05,14,22,21.40
2006,09,05,14,23,21.30
2006,09,05,14,24,21.30
2006,09,05,14,25,21.30
2006,09,05,14,26,21.30
2006,09,05,14,27,21.30
2006,09,05,14,28,21.30
2006,09,05,14,29,21.30
2006,09,05,14,30,21.40
2006,09,05,14,31,21.40
2006,09,05,14,32,21.40
2006,09,05,14,33,21.40
2006,09,05,14,34,21.50
2006,09,05,14,35,21.60
2006,09,05,14,36,21.50
2006,09,05,14,37,21.50
2006,09,05,14,38,21.50
2006,09,05,14,39,21.40
2006,09,05,14,40,21.40
2006,09,05,14,41,21.50
2006,09,05,14,42,21.60
2006,09,05,14,43,21.60
2006,09,05,14,44,21.60
2006,09,05,14,45,21.60
2006,09,05,14,46,21.60
2006,09,05,14,47,21.70
2006,09,05,14,48,21.80
2006,09,05,14,49,21.80
2006,09,05,14,50,21.90
2006,09,05,14,51,22.00
2006,09,05,14,52,22.00
2006,09,05,14,53,22.00
2006,09,05,14,54,21.90
2006,09,05,14,55,21.90
2006,09,05,14,56,21.90
2006,09,05,14,57,21.90
2006,09,05,14,58,21.80
2006,09,05,14,59,21.80
2006,09,05,15,00,21.80
2006,09,05,15,01,21.80
2006,09,05,15,02,21.70
2006,09,05,15,03,21.70
2006,09,05,15,04,21.70
2006,09,05,15,05,21.70
2006,09,05,15,06,21.70
2006,09,05,15,07,21.70
2006,09,05,15,08,21.70
2006,09,05,15,09,21.70
2006,09,05,15,10,21.70
2006,09,05,15,11,21.60
2006,09,05,15,12,21.60
2006,09,05,15,13,21.60
2006,09,05,15,14,21.60
2006,09,05,15,15,21.60
2006,09,05,15,16,21.60
2006,09,05,15,17,21.60
2006,09,05,15,18,21.60
2006,09,05,15,19,21.70
2006,09,05,15,20,21.70
2006,09,05,15,21,21.70
2006,09,05,15,22,21.70
2006,09,05,15,23,21.80
2006,09,05,15,24,21.80
2006,09,05,15,25,21.80
2006,09,05,15,26,21.80
2006,09,05,15,27,21.70
2006,09,05,15,28,21.80
2006,09,05,15,29,21.80
2006,09,05,15,30,21.80
2006,09,05,15,31,21.80
2006,09,05,15,32,21.80
2006,09,05,15,33,21.80
2006,09,05,15,34,21.90
2006,09,05,15,35,21.90
2006,09,05,15,36,21.90
2006,09,05,15,37,21.90
2006,09,05,15,38,21.90
2006,09,05,15,39,21.90
2006,09,05,15,40,21.90
2006,09,05,15,41,21.90
2006,09,05,15,42,22.00
2006,09,05,15,43,22.00
2006,09,05,15,44,22.10
2006,09,05,15,45,22.10
2006,09,05,15,46,22.10
2006,09,05,15,47,22.10
2006,09,05,15,48,22.10
2006,09,05,15,49,22.00
2006,09,05,15,50,22.00
2006,09,05,15,51,21.90
2006,09,05,15,52,21.90
2006,09,05,15,53,22.00
2006,09,05,15,54,22.00
2006,09,05,15,55,22.10
2006,09,05,15,56,22.20
2006,09,05,15,57,22.20
2006,09,05,15,58,22.30
2006,09,05,15,59,22.30
2006,09,05,16,00,22.40
2006,09,05,16,01,22.40
2006,09,05,16,02,22.40
2006,09,05,16,03,22.40
2006,09,05,16,04,22.40
2006,09,05,16,05,22.40
2006,09,05,16,06,22.30
2006,09,05,16,07,22.30
2006,09,05,16,08,22.30
2006,09,05,16,09,22.30
2006,09,05,16,10,22.30
2006,09,05,16,11,22.30
2006,09,05,16,12,22.40
2006,09,05,16,13,22.40
2006,09,05,16,14,22.40
2006,09,05,16,15,22.50
2006,09,05,16,16,22.60
2006,09,05,16,17,22.60
2006,09,05,16,18,22.70
2006,09,05,16,19,22.70
2006,09,05,16,20,22.90
2006,09,05,16,21,23.00
2006,09,05,16,22,23.10
2006,09,05,16,23,23.20
2006,09,05,16,24,23.30
2006,09,05,16,25,23.30
2006,09,05,16,26,23.50
2006,09,05,16,27,23.70
2006,09,05,16,28,23.80
2006,09,05,16,29,23.90
2006,09,05,16,30,24.00
2006,09,05,16,31,24.10
2006,09,05,16,32,24.10
2006,09,05,16,33,24.10
2006,09,05,16,34,24.10
2006,09,05,16,35,24.10
2006,09,05,16,36,24.10
2006,09,05,16,37,24.20
2006,09,05,16,38,24.20
2006,09,05,16,39,24.20
2006,09,05,16,40,24.20
2006,09,05,16,41,24.10
2006,09,05,16,42,24.10
2006,09,05,16,43,24.10
2006,09,05,16,44,24.00
2006,09,05,16,45,23.80
2006,09,05,16,46,23.80
2006,09,05,16,47,23.70
2006,09,05,16,48,23.70
2006,09,05,16,49,23.70
2006,09,05,16,50,23.50
2006,09,05,16,51,23.40
2006,09,05,16,52,23.30
2006,09,05,16,53,23.30
2006,09,05,16,54,23.20
2006,09,05,16,55,23.10
2006,09,05,16,56,23.10
2006,09,05,16,57,23.10
2006,09,05,16,58,23.10
2006,09,05,16,59,23.20
2006,09,05,17,00,23.30
2006,09,05,17,01,23.30
2006,09,05,17,02,23.30
2006,09,05,17,03,23.40
2006,09,05,17,04,23.40
2006,09,05,17,05,23.30
2006,09,05,17,06,23.30
2006,09,05,17,07,23.20
2006,09,05,17,08,23.10
2006,09,05,17,09,22.90
2006,09,05,17,10,22.90
2006,09,05,17,11,22.90
2006,09,05,17,12,23.00
2006,09,05,17,13,23.10
2006,09,05,17,14,23.00
2006,09,05,17,15,22.90
2006,09,05,17,16,22.70
2006,09,05,17,17,22.60
2006,09,05,17,18,22.50
2006,09,05,17,19,22.50